Snowfall_Accumulation
0.0 0.0 0.0 0.0 0.0 0.0 0.0 0.0 0.0 0.0 0.0 0.0 0.0 0.0 0.0 0.0 0.0 0.0 0.0 0.0 0.0 0.0 0.0 0.0 0.0 0.0 0.0 0.0 0.0 0.0 0.0 0.0
0.0 0.0 0.0 0.0 0.0 0.0 0.0 0.0 0.0 0.0 0.0 0.0 0.0 0.0 0.0 0.0 0.0 0.0 0.0 0.0 0.0 0.0 0.0 0.0 0.0 0.0 0.0 0.0 0.0 0.5 0.5 0.0
0.0 0.0 0.0 0.0 0.0 0.0 0.0 0.0 0.0 0.0 0.0 0.0 0.0 0.0 0.0 0.0 0.0 0.0 0.0 0.0 0.0 0.0 0.0 0.0 0.0 0.0 0.0 0.0 0.7 0.8 0.0 0.0
0.0 0.0 0.0 0.0 0.0 0.0 0.0 0.0 0.0 0.0 0.0 0.0 0.0 0.0 0.0 0.0 0.0 0.0 0.0 0.0 0.0 0.0 0.0 0.0 0.0 0.0 0.0 0.0 0.0 0.0 0.0 0.0
0.0 0.0 0.0 0.0 0.0 0.0 0.0 0.0 0.0 0.0 0.0 0.0 0.0 0.0 0.0 0.0 0.0 0.0 0.0 0.0 0.0 0.0 0.0 0.0 0.0 0.0 0.0 0.0 0.0 0.0 0.0 0.0
0.0 0.0 0.0 0.0 0.0 0.0 0.0 0.0 0.0 0.0 0.0 0.0 0.0 0.0 0.2 0.7 0.9 0.8 0.7 0.0 0.0 0.0 0.3 0.0 0.0 0.0 0.0 0.0 1.0 0.7 0.0 0.0
0.0 0.0 0.0 0.0 0.0 0.0 0.0 0.0 0.0 0.0 0.0 0.0 1.4 1.7 1.8 1.7 1.3 0.9 0.8 0.8 0.8 0.8 0.8 0.7 0.0 nan nan 0.1 0.9 1.1 0.0 0.1
0.0 0.0 0.0 0.0 0.0 0.0 0.0 0.4 1.5 1.8 2.5 2.4 2.2 2.0 1.6 1.3 1.2 0.9 0.9 1.0 0.8 0.8 0.8 0.8 0.7 nan nan nan 1.1 1.1 0.1 0.0
0.0 0.0 0.0 0.0 0.0 0.0 0.5 1.1 1.4 2.3 3.2 2.4 1.6 2.8 1.6 1.3 1.4 1.0 0.9 1.1 0.9 1.1 1.0 0.8 0.7 nan nan nan 1.0 0.9 0.0 0.0
0.0 0.0 0.0 0.0 0.0 0.7 0.8 0.8 0.9 1.0 1.5 1.5 2.2 3.1 1.7 3.8 1.8 1.4 2.3 1.8 2.9 3.0 4.3 3.5 3.4 nan nan 2.0 3.0 2.1 1.6 0.1
0.0 0.0 0.0 0.0 0.0 0.8 0.8 1.2 1.1 0.9 0.9 1.1 2.1 4.5 3.6 2.2 3.2 3.7 3.5 3.3 4.1 3.8 3.4 0.9 4.8 nan nan nan 7.8 7.1 4.5 2.5
0.1 0.1 0.0 0.4 0.9 0.9 0.8 1.1 1.4 1.6 1.6 1.9 2.2 4.8 3.1 3.6 3.0 4.3 4.7 2.6 4.4 4.1 3.3 3.7 2.0 2.4 nan nan 4.7 6.8 8.2 6.8
0.0 0.1 0.0 1.0 1.4 1.3 1.0 1.3 1.9 2.4 2.7 3.3 5.3 5.0 5.0 8.6 5.5 7.3 6.4 6.2 5.6 5.8 4.7 4.1 1.8 nan nan nan nan nan 12.1 6.2
1.6 1.5 0.1 1.9 2.2 2.8 1.9 2.2 2.9 5.4 7.5 7.5 6.7 6.8 6.8 9.8 6.6 8.9 7.4 8.5 4.9 6.4 5.9 3.9 3.5 3.7 nan nan nan nan 6.5 4.8
2.4 2.8 2.7 2.5 3.0 3.5 3.1 3.2 10.2 10.2 5.5 4.5 5.8 4.3 5.8 7.9 9.1 12.7 10.0 8.1 8.9 9.8 8.9 5.4 5.1 4.0 4.4 8.4 6.0 1.9 6.4 nan
2.8 2.8 2.6 2.3 2.7 3.9 3.9 4.7 7.0 7.3 4.2 5.8 8.1 8.9 5.3 4.8 8.0 6.8 4.6 9.6 14.7 17.5 12.1 13.0 13.4 10.3 5.3 11.0 12.5 12.1 10.8 7.4
2.5 2.4 2.9 3.6 4.0 5.3 6.9 6.6 6.7 4.3 6.1 5.9 5.9 5.2 4.6 4.6 4.4 nan nan nan nan nan 11.7 14.9 nan nan nan nan nan nan nan 18.6
2.9 3.1 3.6 4.2 4.1 5.6 7.2 8.1 8.2 7.1 4.8 6.2 4.9 5.2 5.7 5.9 6.8 7.8 4.6 nan nan nan nan nan nan nan nan nan nan nan nan 30.8
3.0 4.5 5.4 5.7 6.5 5.6 8.3 9.7 9.3 6.8 1.8 7.4 7.1 6.8 7.0 7.6 7.8 8.0 9.4 10.9 9.0 nan nan nan nan nan nan nan nan 24.0 nan 25.2
4.9 5.5 5.7 5.8 5.5 5.5 6.0 8.0 8.9 7.3 6.1 6.9 6.9 6.6 6.9 7.6 6.6 7.5 7.4 8.0 10.6 10.2 10.2 5.4 nan nan nan nan 14.7 23.8 22.6 23.1
Water_Equivalent
0.00 0.00 0.00 0.00 0.00 0.00 0.00 0.00 0.00 0.00 0.00 0.00 0.00 0.00 0.00 0.00 0.00 0.00 0.00 0.00 0.00 0.00 0.00 0.00 0.00 0.00 0.00 0.00 0.00 0.00 0.00 0.00
0.00 0.00 0.00 0.00 0.00 0.00 0.00 0.00 0.00 0.00 0.00 0.00 0.00 0.00 0.00 0.00 0.00 0.00 0.00 0.00 0.00 0.00 0.00 0.00 0.00 0.00 0.00 0.00 0.00 0.05 0.05 0.00
0.00 0.00 0.00 0.00 0.00 0.00 0.00 0.00 0.00 0.00 0.00 0.00 0.00 0.00 0.00 0.00 0.00 0.00 0.00 0.00 0.00 0.00 0.00 0.00 0.00 0.00 0.00 0.00 0.07 0.08 0.00 0.00
0.00 0.00 0.00 0.00 0.00 0.00 0.00 0.00 0.00 0.00 0.00 0.00 0.00 0.00 0.00 0.00 0.00 0.00 0.00 0.00 0.00 0.00 0.00 0.00 0.00 0.00 0.00 0.00 0.00 0.00 0.00 0.00
0.00 0.00 0.00 0.00 0.00 0.00 0.00 0.00 0.00 0.00 0.00 0.00 0.00 0.00 0.00 0.00 0.00 0.00 0.00 0.00 0.00 0.00 0.00 0.00 0.00 0.00 0.00 0.00 0.00 0.00 0.00 0.00
0.00 0.00 0.00 0.00 0.00 0.00 0.00 0.00 0.00 0.00 0.00 0.00 0.00 0.00 0.02 0.07 0.09 0.08 0.07 0.00 0.00 0.00 0.03 0.00 0.00 0.00 0.00 0.00 0.10 0.07 0.00 0.00
0.00 0.00 0.00 0.00 0.00 0.00 0.00 0.00 0.00 0.00 0.00 0.00 0.14 0.17 0.18 0.17 0.13 0.09 0.08 0.08 0.08 0.08 0.08 0.08 0.00 nan nan 0.01 0.09 0.10 0.00 0.01
0.00 0.00 0.00 0.00 0.00 0.00 0.00 0.05 0.16 0.20 0.28 0.25 0.22 0.20 0.16 0.13 0.12 0.09 0.09 0.10 0.08 0.08 0.08 0.08 0.07 nan nan nan 0.11 0.11 0.01 0.00
0.00 0.00 0.00 0.00 0.00 0.00 0.07 0.12 0.14 0.24 0.33 0.25 0.16 0.28 0.16 0.13 0.14 0.10 0.09 0.11 0.09 0.11 0.10 0.08 0.07 nan nan nan 0.09 0.09 0.00 0.00
0.00 0.00 0.00 0.00 0.00 0.08 0.08 0.08 0.09 0.10 0.15 0.15 0.22 0.31 0.17 0.37 0.17 0.13 0.23 0.17 0.28 0.30 0.43 0.35 0.34 nan nan 0.20 0.30 0.21 0.16 0.01
0.00 0.00 0.00 0.00 0.00 0.08 0.08 0.12 0.11 0.09 0.09 0.11 0.21 0.44 0.35 0.21 0.31 0.36 0.35 0.33 0.41 0.38 0.34 0.11 0.48 nan nan nan 0.79 0.72 0.46 0.25
0.01 0.01 0.00 0.04 0.09 0.09 0.09 0.12 0.14 0.16 0.16 0.19 0.21 0.47 0.30 0.35 0.30 0.42 0.46 0.26 0.43 0.40 0.32 0.37 0.21 0.24 nan nan 0.47 0.68 0.82 0.69
0.01 0.01 0.01 0.11 0.15 0.14 0.10 0.13 0.19 0.24 0.26 0.32 0.51 0.48 0.49 0.86 0.53 0.72 0.63 0.62 0.55 0.57 0.46 0.41 0.18 nan nan nan nan nan 1.23 0.62
0.18 0.16 0.01 0.21 0.23 0.28 0.18 0.21 0.28 0.53 0.74 0.74 0.66 0.66 0.67 0.98 0.65 0.88 0.73 0.86 0.49 0.65 0.60 0.40 0.35 0.37 nan nan nan nan 0.65 0.49
0.26 0.29 0.28 0.26 0.31 0.35 0.30 0.31 1.02 1.02 0.54 0.43 0.55 0.44 0.55 0.77 0.91 1.28 0.99 0.80 0.88 0.99 0.90 0.54 0.51 0.40 0.44 0.86 0.62 0.25 0.64 nan
0.28 0.28 0.26 0.22 0.25 0.37 0.35 0.42 0.66 0.70 0.39 0.54 0.78 0.87 0.50 0.46 0.78 0.67 0.45 0.94 1.46 1.76 1.19 1.25 1.29 1.02 0.54 1.13 1.28 1.22 1.07 0.87
0.24 0.22 0.23 0.30 0.34 0.47 0.63 0.62 0.64 0.39 0.58 0.57 0.58 0.50 0.45 0.44 0.41 nan nan nan nan nan 1.17 1.52 nan nan nan nan nan nan nan 1.98
0.27 0.26 0.27 0.31 0.31 0.47 0.65 0.77 0.80 0.70 0.46 0.60 0.50 0.48 0.54 0.56 0.66 0.75 0.45 nan nan nan nan nan nan nan nan nan nan nan nan 3.20
0.25 0.35 0.43 0.47 0.55 0.48 0.78 0.93 0.90 0.65 0.61 0.70 0.67 0.64 0.67 0.73 0.75 0.79 0.93 1.08 0.88 nan nan nan nan nan nan nan nan 2.45 nan 2.56
0.42 0.46 0.48 0.49 0.45 0.47 0.54 0.77 0.87 0.70 0.59 0.66 0.66 0.64 0.68 0.75 0.64 0.73 0.71 0.76 1.03 0.99 1.01 0.85 nan nan nan nan 1.49 2.41 2.26 2.29
SL_Ratio
nan nan nan nan nan nan nan nan nan nan nan nan nan nan nan nan nan nan nan nan nan nan nan nan nan nan nan nan nan nan nan nan
nan nan nan nan nan nan nan nan nan nan nan nan nan nan nan nan nan nan nan nan nan nan nan nan nan nan nan nan nan 10.0 10.0 5.0
nan nan nan nan nan nan nan nan nan nan nan nan nan nan nan nan nan nan nan nan nan nan nan nan nan nan nan 10.0 10.0 10.0 10.0 nan
nan nan nan nan nan nan nan nan nan nan nan nan nan nan nan nan nan nan nan nan nan nan nan nan nan nan nan nan nan nan nan nan
nan nan nan nan nan nan nan nan nan nan nan nan nan nan nan nan nan nan nan nan nan nan nan nan nan nan nan nan nan nan nan nan
nan nan nan nan nan nan nan nan nan nan nan nan nan nan 8.8 9.3 9.5 10.0 10.0 nan nan nan 9.9 nan nan nan nan 15.0 10.0 10.1 11.5 11.3
nan nan nan nan nan nan nan nan 8.8 8.6 8.5 8.2 9.8 10.0 10.0 10.0 10.0 10.0 10.0 10.0 10.0 10.0 10.0 9.9 nan nan nan 11.8 10.4 10.1 11.7 11.5
nan nan nan nan nan nan nan 8.1 9.4 9.3 8.7 9.4 9.9 9.9 10.0 10.0 10.0 10.0 10.0 10.0 10.0 10.0 10.0 10.0 10.0 nan nan nan 10.1 10.1 11.4 10.8
5.8 5.0 nan nan nan nan 7.9 9.2 9.6 9.6 9.8 9.9 10.0 9.9 10.0 10.0 10.0 10.2 10.3 10.3 10.2 10.1 10.1 10.1 10.0 nan nan nan 10.1 10.2 10.6 10.6
nan nan nan nan nan 9.8 10.0 10.0 10.0 10.0 10.0 10.0 10.0 10.0 10.2 10.1 10.6 10.8 10.3 10.4 10.1 10.0 9.9 9.9 9.9 nan nan 10.0 10.0 10.1 10.0 9.6
7.5 nan nan nan nan 9.9 10.0 10.0 10.0 10.0 10.2 10.2 10.2 10.1 10.3 10.5 10.4 10.1 10.0 10.0 10.0 10.0 10.0 8.1 9.9 nan nan nan 9.9 9.9 9.9 10.0
6.6 7.2 6.3 9.1 9.6 9.8 9.8 9.9 9.8 10.0 10.3 10.4 10.5 10.2 10.3 10.2 10.1 10.1 10.2 10.3 10.1 10.1 10.1 10.0 9.4 9.8 nan nan 9.9 10.0 10.0 10.0
6.5 6.7 6.8 8.9 9.3 9.4 9.7 9.9 10.0 10.2 10.4 10.4 10.3 10.3 10.3 10.1 10.3 10.1 10.1 10.1 10.1 10.1 10.0 9.9 10.0 nan nan nan nan nan 9.9 10.1
9.0 9.3 8.4 9.2 9.6 9.8 10.6 10.6 10.5 10.2 10.1 10.1 10.2 10.2 10.2 10.0 10.3 10.1 10.1 9.9 10.0 9.9 9.9 10.0 9.9 9.9 nan nan nan nan 9.9 10.0
9.2 9.7 9.5 9.4 9.8 9.9 10.3 10.4 10.0 10.0 10.3 10.6 10.5 9.8 10.6 10.2 10.1 9.9 10.1 10.2 10.1 10.0 9.9 10.0 10.0 10.0 10.0 9.8 9.8 7.7 10.0 nan
9.9 9.9 10.0 10.2 10.9 10.5 11.2 11.2 10.7 10.5 11.0 10.7 10.4 10.2 10.5 10.5 10.3 10.3 10.3 10.2 10.0 9.9 10.1 10.4 10.4 10.1 9.9 9.7 9.8 9.9 10.0 8.6
10.4 10.9 12.2 12.1 11.9 11.3 10.9 10.7 10.5 11.1 10.6 10.4 10.3 10.3 10.2 10.3 10.6 nan nan nan nan nan 10.1 9.8 nan nan nan nan nan nan nan 9.4
10.8 11.8 13.2 13.5 13.3 11.8 11.0 10.5 10.3 10.2 10.5 10.4 9.8 10.7 10.5 10.4 10.4 10.3 10.2 nan nan nan nan nan nan nan nan nan nan nan nan 9.6
12.0 12.9 12.6 12.3 11.8 11.7 10.7 10.4 10.4 10.4 3.0 10.5 10.6 10.6 10.5 10.4 10.3 10.2 10.1 10.2 10.2 nan nan nan nan nan nan nan nan 9.8 nan 9.9
11.7 12.0 12.0 12.0 12.2 11.8 11.1 10.5 10.3 10.4 10.5 10.4 10.4 10.3 10.2 10.2 10.4 10.3 10.4 10.5 10.3 10.3 10.1 6.3 nan nan nan nan 9.8 9.9 10.0 10.1